Aérodrome :
LOGIN :

S'inscrire | Disclaimer

   EN    FR    IT 

 










Légende :    VFR   VFR Marginal   IFR   IFR Intensif   IFR Très Intensif
Visi : 
Plafond : 
>= 8 km
>= 3000ft
5 à 8 km
1000 à 3000 ft
1500m à 5 km
500 à 1000 ft
800 à 1500m
200 à 500 ft
< 800m
< 200 ft
Symboles :   Orages  Brouillard  Fortes neiges  Fortes précipitations  Vent > 20 kt
SIGMETs :   Divers  Orages  Givrage  Turbulence  Onde Orograph.  Cendres Volcan.







- Altitude de l'aérodrome : 202 ft
- Code IATA : LGW
- Voir les cartes d'approche


EGKK - London Gatwick

DERNIER METAR :
  • 180620Z 23005KT 200V260 9999 SCT012 15/13 Q1010

METARs EXPIRÉS :
  • 180550Z 23004KT 9999 FEW015 15/13 Q1010
  • 180520Z 24007KT CAVOK 15/13 Q1010
  • 180450Z 23012KT 9999 SCT014 16/13 Q1010
  • 180420Z 20006KT 160V230 9999 FEW011 16/15 Q1010
  • 180350Z 20005KT 9999 SCT010 16/15 Q1010

TAF TAF EGKK
Valide du 18 à 06h jusqu'au 19 à 12h UTC


180447Z 1806/1912 23012KT 9999 FEW025
TEMPO 1811/1820 25015G25KT 8000 SHRA
PROB30
TEMPO 1812/1818 4000 +SHRA
Pas de NOTAMs connus pour ce terrain.



MET'MAP, la Météo Aéronautique d'un coup d'oeil ! - Copyright ORBIFLY Décembre 2007 - Disclaimer

ORBIFLY MET'MAP TEAM :

Programmation & Développement : Alexandra Zaïnal
Conception & Développement : Baudouin d'Aumeries
Co-Programmation & Développement : Marc-Olivier Méhu
Soutien technique & logistique : Manuel Goepfert

Contact : metmap@orbifly.com




SOURCES & CREDITS :

   NOAA